Regional Weather Roundup
Issued by NWS New Orleans/Baton Rouge, LA

Home | Current Version | Previous Version | Graphics & Text | Print | Product List | Glossary On
Versions: 1 2 3 4 5 6 7 8 9 10 11 12 13 14 15 16 17 18 19 20 21 22 23 24 25 26 27 28 29 30 31 32 33 34 35 36 37 38 39 40 41 42 43 44 45 46 47 48 49 50
215
ASUS44 KLIX 212001
RWRLIX
NEW ORLEANS REGIONAL WEATHER ROUNDUP
NATIONAL WEATHER SERVICE NEW ORLEANS LA
200 PM CST SUN DEC 21 2014

NOTE: "FAIR" INDICATES FEW OR NO CLOUDS BELOW 12,000 FEET WITH NO
      SIGNIFICANT WEATHER AND/OR OBSTRUCTIONS TO VISIBILITY.
      SKY/WX - SKY CONDITION AND SIGNIFICANT WEATHER.
      TMP - AIR TEMPERATURE.     DP    - DEWPOINT TEMPERATURE.
      RH  - RELATIVE HUMIDITY.   PRES  - PRESSURE.
      HI  - HEAT INDEX.          WCI   - WIND CHILL INDEX.

*  THESE STATIONS ARE NOT NWS OR FAA STATIONS AND ARE NOT UNDER
   NWS QUALITY CONTROL.

LAZ038-040-048-061>063-065>067-069-212100-
SOUTHEAST LOUISIANA

CITY           SKY/WX    TMP DP  RH WIND       PRES   REMARKS
N.O. AUDUBON     N/A     58  52  80 MISG        N/A
N.O. INTL ARPT CLOUDY    57  50  77 NE5       30.02F
N.O. LAKEFRONT CLOUDY    58  51  78 E3        30.03F
N.O. DOWNTOWN* CLOUDY    57  48  72 NE3       30.03F
SLIDELL        CLOUDY    59  51  75 S5        30.02F
BATON ROUGE    CLOUDY    59  48  67 S3        30.02F
BOOTHVILLE     CLOUDY    59  56  89 N6        30.01F
BELLE CHASSE   CLOUDY    60  52  74 NE3       30.02F
BOGALUSA*        N/A     62  50  65 N6        30.03F
GALLIANO*      NOT AVBL
NEW ROADS*     NOT AVBL
GONZALES*      NOT AVBL
HAMMOND*       NOT AVBL
HOUMA*         CLOUDY    57  52  82 NE3       30.03F
PORT FOURCHON* CLOUDY    57  54  88 N10       30.05S

$$

MSZ070-080>082-212100-
SOUTHERN MISSISSIPPI

CITY           SKY/WX    TMP DP  RH WIND       PRES   REMARKS
MCCOMB         PTSUNNY   59  49  69 N3        30.02F
GULFPORT       CLOUDY    58  52  80 SE7       30.02F
BILOXI         NOT AVBL
PASCAGOULA     CLOUDY    57  53  86 E3        30.04F
STENNIS ARPT*    N/A     57  48  72 SE5       30.03F

$$

COASTAL OBSERVATIONS
LAKE AND NEARSHORE STATIONS

STATION/POSITION TIME  TEMP    WIND        PRES    WAVE
                       AIR SEA DIR/SP/G            HT/PER
                 (UTC) (F)     (DEG/KT/KT) (MB)    (FT/S)
PASCAGOULA       1900   57      10/  3/  5 1017.1
WAVELAND YACHT   1900   54     150/  6/  7 1016.4
GRAND ISLE       1900   59 60   40/  5/  9 1016.6
SOUTHWEST PASS   1900   60                 1016.2
NEW CANAL        1900   54 56   40/  4/  5 1017.2
SHELL BEACH      1900   56 57   30/  5/  6 1016.7

OFFSHORE STATIONS

STATION/POSITION TIME  TEMP    WIND        PRES    WAVE
                       AIR SEA DIR/SP/G            HT/PER
                 (UTC) (F)     (DEG/KT/KT) (MB)    (FT/S)
64 S DAUPHIN ISL 2000   66 74   30/ 10/ 12 1015.2    3/ 6

$$




USA.gov is the U.S. government's official web portal to all federal, state and local government web resources and services.